This demonstration page uses our WeatherBlox Daily Observations layout. Learn more.

Left ArrowRight Arrow

41.55636, -103.73856

Hourly Observations for December 13, 2017

Temp ( °F °C ) Dew Point ( °F °C ) Humidity (%) Winds ( mph kmh ) Pressure ( in mb ) Visibility ( mi km ) Precip ( " mm )
12:53 am 00:53 Clear 35 1.7 15 -9.4 44 44 WNW 10 17 29.99 1016 10 16 N/A
1:53 am 01:53 Clear 40 4.4 15 -9.4 36 36 WNW 12 19 29.99 1016 10 16 N/A
2:53 am 02:53 Mostly Clear 40 4.4 14 -10 35 35 WNW 9 15 30.01 1016 10 16 N/A
3:53 am 03:53 Mostly Clear 41 5 13 -10.6 32 32 WNW 9 15 30.01 1016 10 16 N/A
4:53 am 04:53 Clear 35 1.7 13 -10.6 40 40 NW 10 17 30.07 1018 10 16 N/A
5:53 am 05:53 Clear 37 2.8 14 -10 39 39 WNW 10 17 30.09 1019 10 16 N/A
6:53 am 06:53 Clear 33 0.6 15 -9.4 47 47 NW 12 19 30.14 1021 10 16 N/A
7:53 am 07:53 Sunny 37 2.8 15 -9.4 41 41 W 13 20 30.15 1021 10 16 N/A
8:53 am 08:53 Sunny 42 5.6 14 -10 32 32 WNW 13 20 30.17 1022 10 16 N/A
9:53 am 09:53 Sunny 45 7.2 15 -9.4 30 30 WNW 20 31 30.18 1022 10 16 N/A
10:53 am 10:53 Sunny 49 9.4 15 -9.4 26 26 NW 24 39 30.10 1019 10 16 N/A
11:53 am 11:53 Sunny 50 10 15 -9.4 25 25 NNW 22 35 30.07 1018 10 16 N/A
12:53 pm 12:53 Sunny 50 10 15 -9.4 25 25 NW 22 35 30.05 1018 10 16 N/A
1:53 pm 13:53 Sunny 52 11.1 14 -10 22 22 NW 22 35 30.01 1016 10 16 N/A
2:53 pm 14:53 Sunny 51 10.6 14 -10 23 23 NNW 18 30 30.01 1016 10 16 N/A
3:53 pm 15:53 Sunny 47 8.3 15 -9.4 28 28 NW 17 28 30.04 1017 10 16 N/A
4:53 pm 16:53 Clear 42 5.6 15 -9.4 33 33 NNW 8 13 30.07 1018 10 16 N/A
5:53 pm 17:53 Mostly Cloudy 41 5 18 -7.8 39 39 NW 10 17 30.09 1019 10 16 N/A
6:53 pm 18:53 Mostly Cloudy 40 4.4 18 -7.8 41 41 NW 12 19 30.12 1020 10 16 N/A
7:53 pm 19:53 Cloudy 40 4.4 19 -7.2 43 43 NW 10 17 30.13 1020 10 16 N/A
8:53 pm 20:53 Cloudy 39 3.9 19 -7.2 45 45 WNW 9 15 30.14 1021 10 16 N/A
9:53 pm 21:53 Cloudy 38 3.3 24 -4.4 57 57 NNW 25 41 30.16 1021 10 16 N/A
10:53 pm 22:53 Cloudy 34 1.1 29 -1.7 82 82 NW 16 26 30.18 1022 10 16 N/A
11:53 pm 23:53 Cloudy 33 0.6 30 -1.1 89 89 W 12 19 30.16 1022 10 16 N/A

Powered by AerisWeather